Greenville/Spartanburg, SC

10:31 PM EDT on October 16, 2017 (GMT -0400)
Greenville-Spartanburg International

Weather History for KGSP - March, 2011

Change the Weather History Date:

Sunday, March 20, 2011

  Actual Average Record
Temperature  
Mean Temperature 60 °F 54 °F  
Max Temperature 64 °F 66 °F 84 °F (1968)
Min Temperature 56 °F 42 °F 22 °F (1923)
Degree Days  
Heating Degree Days 5 11  
Month to date heating degree days 252 275  
Since 1 July heating degree days 2875 2724  
Cooling Degree Days 0 0  
Month to date cooling degree days 6 0  
Year to date cooling degree days 7 0  
Growing Degree Days 10 (Base 50)    
Moisture  
Dew Point 36 °F    
Average Humidity 41    
Maximum Humidity 51    
Minimum Humidity 31    
Precipitation  
Precipitation 0.00 in 0.14 in 2.19 in (2000)
Month to date precipitation 3.60 2.96  
Year to date precipitation 9.99 10.75  
Snow  
Snow 0.00 in 0.00 in 0.80 in (2001)
Month to date snowfall T 0.7  
Since 1 July snowfall 8.8 4.5  
Snow Depth 0.00 in    
Sea Level Pressure  
Sea Level Pressure 30.40 in    
Wind  
Wind Speed 6 mph (NE)    
Max Wind Speed 15 mph    
Max Gust Speed 21 mph    
Visibility 10 miles    
Events      
T = Trace of Precipitation, MM = Missing Value Source: NWS Daily Summary

Daily Weather History Graph

Daily Weather History Graph

Search for Another Location

Airport or City:

Trip Planner

Search our weather history database for the weather conditions in past years. The results will help you decide how hot, cold, wet, or windy it might be!

Date:

Astronomy

Mar. 20, 2011 Rise Set
Actual Time 7:32 AM EDT 7:40 PM EDT
Civil Twilight 7:07 AM EDT 8:05 PM EDT
Nautical Twilight 6:38 AM EDT 8:35 PM EDT
Astronomical Twilight 6:08 AM EDT 9:04 PM EDT
Moon 9:11 PM EDT (3/20) 7:42 AM EDT (3/20)
Length of Visible Light 12h 57m
Length of Day
12h 07m
Full, 99% of the Moon is Illuminated
Mar 20
Full
Mar 26
Last Quarter
Apr 3
New
Apr 11
First Quarter
Apr 17
Full

Hourly Weather History & Observations

Time (EDT) Temp. Dew Point Humidity Pressure Visibility Wind Dir Wind Speed Gust Speed Precip Events Conditions
12:53 AM 64.0 °F 37.9 °F 38% 30.31 in 10.0 mi NNE 5.8 mph - N/A   Overcast
1:53 AM 62.1 °F 37.0 °F 39% 30.31 in 10.0 mi ENE 6.9 mph - N/A   Mostly Cloudy
2:53 AM 62.1 °F 32.0 °F 32% 30.33 in 10.0 mi NNE 8.1 mph - N/A   Overcast
3:53 AM 60.1 °F 30.9 °F 33% 30.33 in 10.0 mi NE 10.4 mph - N/A   Overcast
4:53 AM 59.0 °F 28.9 °F 32% 30.34 in 10.0 mi NE 10.4 mph - N/A   Overcast
5:53 AM 57.9 °F 28.0 °F 32% 30.36 in 10.0 mi NE 10.4 mph - N/A   Overcast
6:53 AM 57.0 °F 28.9 °F 34% 30.39 in 10.0 mi NE 8.1 mph - N/A   Overcast
7:53 AM 57.0 °F 30.9 °F 37% 30.41 in 10.0 mi NE 9.2 mph - N/A   Overcast
8:53 AM 57.2 °F 33.8 °F 41% 30.46 in 10.0 mi NE 8.1 mph - N/A   Overcast
9:53 AM 57.9 °F 37.0 °F 46% 30.47 in 10.0 mi East 10.4 mph - N/A   Overcast
10:53 AM 57.9 °F 37.9 °F 47% 30.49 in 10.0 mi East 11.5 mph - N/A   Overcast
11:53 AM 57.0 °F 35.1 °F 44% 30.48 in 10.0 mi East 8.1 mph - N/A   Overcast
12:53 PM 57.0 °F 35.1 °F 44% 30.47 in 10.0 mi NE 5.8 mph - N/A   Overcast
1:53 PM 59.0 °F 35.1 °F 41% 30.45 in 10.0 mi NE 5.8 mph - N/A   Overcast
2:53 PM 60.1 °F 37.0 °F 42% 30.43 in 10.0 mi ENE 8.1 mph - N/A   Overcast
3:53 PM 62.6 °F 37.4 °F 39% 30.42 in 10.0 mi NE 5.8 mph - N/A   Overcast
4:53 PM 62.1 °F 37.9 °F 41% 30.40 in 10.0 mi NNE 5.8 mph - N/A   Overcast
5:53 PM 62.1 °F 39.0 °F 43% 30.39 in 10.0 mi ENE 3.5 mph - N/A   Overcast
6:53 PM 61.0 °F 41.0 °F 48% 30.39 in 10.0 mi Calm Calm - N/A   Overcast
7:53 PM 60.1 °F 41.0 °F 49% 30.39 in 10.0 mi Calm Calm - N/A   Overcast
8:53 PM 59.0 °F 39.9 °F 49% 30.40 in 10.0 mi Calm Calm - N/A   Overcast
9:53 PM 57.9 °F 39.9 °F 51% 30.40 in 10.0 mi North 3.5 mph - N/A   Overcast
10:53 PM 57.9 °F 39.9 °F 51% 30.39 in 10.0 mi Calm Calm - N/A   Overcast
11:53 PM 57.9 °F 39.9 °F 51% 30.39 in 10.0 mi Calm Calm - N/A   Overcast